Date,TemperatureHighF,TemperatureAvgF,TemperatureLowF,DewpointHighF,DewpointAvgF,DewpointLowF,HumidityHigh,HumidityAvg,HumidityLow,PressureMaxIn,PressureMinIn,WindSpeedMaxMPH,WindSpeedAvgMPH,GustSpeedMaxMPH,PrecipitationSumIn
2014-1-1,26,20,4,-100,-100,-100,0,0,100,0.00,40.00,0,-999,0,0.01
2014-1-2,33,19,2,-100,-100,-100,0,0,100,0.00,40.00,0,-999,0,0.00
2014-1-3,32,32,32,-100,-100,-100,0,0,100,0.00,40.00,0,-999,0,0.00
2014-1-4,30,20,12,-100,-100,-100,0,0,100,0.00,40.00,0,-999,0,0.00
2014-1-5,7,4,3,-100,-100,-100,0,0,100,0.00,40.00,0,-999,0,0.00
2014-1-6,20,1,-12,-100,-100,-100,0,0,100,0.00,40.00,0,-999,0,0.00
2014-1-7,33,19,2,-100,-100,-100,0,0,100,0.00,40.00,0,-999,0,0.00
2014-1-11,31,21,15,-100,-100,-100,0,0,100,0.00,40.00,0,-999,0,0.01
2014-1-12,28,24,20,-100,-100,-100,0,0,100,0.00,40.00,0,-999,0,0.01
2014-1-13,22,18,12,-100,-100,-100,0,0,100,0.00,40.00,0,-999,0,0.01
2014-1-14,25,17,9,-100,-100,-100,0,0,100,0.00,40.00,0,-999,0,0.00
2014-1-15,33,22,5,-100,-100,-100,0,0,100,0.00,40.00,0,-999,0,0.00
2014-1-16,30,15,6,-100,-100,-100,0,0,100,0.00,40.00,0,-999,0,0.00
2014-1-17,31,21,3,-100,-100,-100,0,0,100,0.00,40.00,0,-999,0,0.00
2014-1-18,36,17,4,-100,-100,-100,0,0,100,0.00,40.00,0,-999,0,0.00
2014-1-19,38,22,6,-100,-100,-100,0,0,100,0.00,40.00,0,-999,0,0.00
2014-1-20,36,25,7,-100,-100,-100,0,0,100,0.00,40.00,0,-999,0,0.00
2014-1-21,39,16,3,-100,-100,-100,0,0,100,0.00,40.00,0,-999,0,0.00
2014-1-22,34,21,2,-100,-100,-100,0,0,100,0.00,40.00,0,-999,0,0.00
2014-1-26,36,28,13,-100,-100,-100,0,0,100,0.00,40.00,0,-999,0,0.00
2014-1-27,26,24,23,-100,-100,-100,0,0,100,0.00,40.00,0,-999,0,0.00
2014-1-29,30,20,9,-100,-100,-100,0,0,100,0.00,40.00,0,-999,0,0.02
2014-1-30,27,26,24,-100,-100,-100,0,0,100,0.00,40.00,0,-999,0,0.06
2014-1-31,26,21,19,-100,-100,-100,0,0,100,0.00,40.00,0,-999,0,0.03
2014-2-1,20,16,9,-100,-100,-100,0,0,100,0.00,40.00,0,-999,0,0.01
2014-2-2,23,4,-13,-100,-100,-100,0,0,100,0.00,40.00,0,-999,0,0.00
2014-2-3,23,13,4,-100,-100,-100,0,0,100,0.00,40.00,0,-999,0,0.01
2014-2-4,20,13,9,-100,-100,-100,0,0,100,0.00,40.00,0,-999,0,0.00
2014-2-5,10,-2,-10,-100,-100,-100,0,0,100,0.00,40.00,0,-999,0,0.00
2014-2-6,20,16,12,-100,-100,-100,0,0,100,0.00,40.00,0,-999,0,0.01
2014-2-7,23,20,16,-100,-100,-100,0,0,100,0.00,40.00,0,-999,0,0.01
2014-2-12,28,18,8,-100,-100,-100,0,0,100,0.00,40.00,0,-999,0,0.00
2014-2-13,37,34,30,-100,-100,-100,0,0,100,0.00,40.00,0,-999,0,0.02
2014-2-14,34,30,27,-100,-100,-100,0,0,100,0.00,40.00,0,-999,0,0.01
2014-2-15,39,35,28,-100,-100,-100,0,0,100,0.00,40.00,0,-999,0,0.00
2014-2-16,36,31,24,-100,-100,-100,0,0,100,0.00,40.00,0,-999,0,0.00
2014-2-17,40,24,3,-100,-100,-100,0,0,100,0.00,40.00,0,-999,0,0.01
2014-2-18,40,29,14,-100,-100,-100,0,0,100,0.00,40.00,0,-999,0,0.00
2014-2-19,35,32,26,-100,-100,-100,0,0,100,0.00,40.00,0,-999,0,0.00
2014-2-20,16,8,1,-100,-100,-100,0,0,100,0.00,40.00,0,-999,0,0.00
2014-2-21,29,20,2,-100,-100,-100,0,0,100,0.00,40.00,0,-999,0,0.03
2014-2-22,30,26,20,-100,-100,-100,0,0,100,0.00,40.00,0,-999,0,0.00
2014-2-23,38,27,22,-100,-100,-100,0,0,100,0.00,40.00,0,-999,0,0.00
2014-2-24,31,24,17,-100,-100,-100,0,0,100,0.00,40.00,0,-999,0,0.00
2014-2-25,41,34,28,-100,-100,-100,0,0,100,0.00,40.00,0,-999,0,0.00
2014-2-26,38,29,19,-100,-100,-100,0,0,100,0.00,40.00,0,-999,0,0.00
2014-2-27,35,30,21,-100,-100,-100,0,0,100,0.00,40.00,0,-999,0,0.00
2014-2-28,34,29,26,-100,-100,-100,0,0,100,0.00,40.00,0,-999,0,0.01
2014-3-1,33,30,27,-100,-100,-100,0,0,100,0.00,40.00,0,-999,0,0.04
2014-3-2,35,26,21,-100,-100,-100,0,0,100,0.00,40.00,0,-999,0,0.02
2014-3-3,36,26,15,-100,-100,-100,0,0,100,0.00,40.00,0,-999,0,0.00
2014-3-4,40,26,10,-100,-100,-100,0,0,100,0.00,40.00,0,-999,0,0.00
2014-3-5,37,25,16,-100,-100,-100,0,0,100,0.00,40.00,0,-999,0,0.02
2014-3-6,47,29,13,-100,-100,-100,0,0,100,0.00,40.00,0,-999,0,0.01
2014-3-7,32,28,25,-100,-100,-100,0,0,100,0.00,40.00,0,-999,0,0.01
2014-3-8,35,25,14,-100,-100,-100,0,0,100,0.00,40.00,0,-999,0,0.01
2014-3-11,39,24,7,-100,-100,-100,0,0,100,0.00,40.00,0,-999,0,0.01
2014-3-12,37,20,-3,-100,-100,-100,0,0,100,0.00,40.00,0,-999,0,0.00
2014-3-13,39,22,4,-100,-100,-100,0,0,100,0.00,40.00,0,-999,0,0.01
2014-3-14,42,27,12,-100,-100,-100,0,0,100,0.00,40.00,0,-999,0,0.00
2014-3-15,27,24,19,-100,-100,-100,0,0,100,0.00,40.00,0,-999,0,0.00
2014-3-16,40,29,3,-100,-100,-100,0,0,100,0.00,40.00,0,-999,0,0.00
2014-3-17,40,29,17,-100,-100,-100,0,0,100,0.00,40.00,0,-999,0,0.00
2014-3-18,27,20,14,-100,-100,-100,0,0,100,0.00,40.00,0,-999,0,0.00
2014-3-19,35,18,6,-100,-100,-100,0,0,100,0.00,40.00,0,-999,0,0.01
2014-3-20,42,30,9,-100,-100,-100,0,0,100,0.00,40.00,0,-999,0,0.00
2014-3-28,32,25,16,-100,-100,-100,0,0,100,0.00,40.00,0,-999,0,0.01
2014-3-29,44,29,5,-100,-100,-100,0,0,100,0.00,40.00,0,-999,0,0.00
2014-3-30,41,34,22,-100,-100,-100,0,0,100,0.00,40.00,0,-999,0,0.00
2014-3-31,36,29,20,-100,-100,-100,0,0,100,0.00,40.00,0,-999,0,0.01
2014-4-1,36,31,25,-100,-100,-100,0,0,100,0.00,40.00,0,-999,0,0.00
2014-4-2,33,25,17,-100,-100,-100,0,0,100,0.00,40.00,0,-999,0,0.00
2014-4-3,33,25,13,-100,-100,-100,0,0,100,0.00,40.00,0,-999,0,0.01
2014-4-4,37,22,1,-100,-100,-100,0,0,100,0.00,40.00,0,-999,0,0.01
2014-4-5,40,28,14,-100,-100,-100,0,0,100,0.00,40.00,0,-999,0,0.01
2014-4-6,33,28,21,-100,-100,-100,0,0,100,0.00,40.00,0,-999,0,0.01
2014-4-7,33,29,24,-100,-100,-100,0,0,100,0.00,40.00,0,-999,0,0.02
2014-4-8,48,36,19,-100,-100,-100,0,0,100,0.00,40.00,0,-999,0,0.01
2014-4-9,51,39,19,-100,-100,-100,0,0,100,0.00,40.00,0,-999,0,0.00
2014-4-10,51,42,27,-100,-100,-100,0,0,100,0.00,40.00,0,-999,0,0.00
2014-4-11,54,38,24,-100,-100,-100,0,0,100,0.00,40.00,0,-999,0,0.00
2014-4-12,50,37,26,-100,-100,-100,0,0,100,0.00,40.00,0,-999,0,0.00
2014-4-13,36,30,20,-100,-100,-100,0,0,100,0.00,40.00,0,-999,0,0.02
2014-4-14,31,20,13,-100,-100,-100,0,0,100,0.00,40.00,0,-999,0,0.01
2014-4-15,43,24,7,-100,-100,-100,0,0,100,0.00,40.00,0,-999,0,0.01
2014-4-16,42,36,32,-100,-100,-100,0,0,100,0.00,40.00,0,-999,0,0.00
2014-4-17,48,38,21,-100,-100,-100,0,0,100,0.00,40.00,0,-999,0,0.00
2014-4-18,55,36,24,-100,-100,-100,0,0,100,0.00,40.00,0,-999,0,0.00
2014-4-19,47,38,30,-100,-100,-100,0,0,100,0.00,40.00,0,-999,0,0.00
2014-4-20,52,40,31,-100,-100,-100,0,0,100,0.00,40.00,0,-999,0,0.01
2014-4-21,52,39,26,-100,-100,-100,0,0,100,0.00,40.00,0,-999,0,0.00
2014-4-22,53,42,28,-100,-100,-100,0,0,100,0.00,40.00,0,-999,0,0.00
2014-4-23,45,39,31,-100,-100,-100,0,0,100,0.00,40.00,0,-999,0,0.00
2014-4-24,47,34,17,-100,-100,-100,0,0,100,0.00,40.00,0,-999,0,0.00
2014-4-25,54,42,24,-100,-100,-100,0,0,100,0.00,40.00,0,-999,0,0.00
2014-4-26,50,39,28,-100,-100,-100,0,0,100,0.00,40.00,0,-999,0,0.01
2014-4-27,33,28,25,-100,-100,-100,0,0,100,0.00,40.00,0,-999,0,0.01
2014-4-28,29,25,21,-100,-100,-100,0,0,100,0.00,40.00,0,-999,0,0.01
2014-4-29,29,24,20,-100,-100,-100,0,0,100,0.00,40.00,0,-999,0,0.01
2014-4-30,34,28,21,-100,-100,-100,0,0,100,0.00,40.00,0,-999,0,0.01
2014-5-1,42,27,9,-100,-100,-100,0,0,100,0.00,40.00,0,-999,0,0.00
2014-5-2,51,38,20,-100,-100,-100,0,0,100,0.00,40.00,0,-999,0,0.00
2014-5-3,58,42,27,-100,-100,-100,0,0,100,0.00,40.00,0,-999,0,0.00
2014-5-4,60,46,31,-100,-100,-100,0,0,100,0.00,40.00,0,-999,0,0.00
2014-5-5,59,51,35,-100,-100,-100,0,0,100,0.00,40.00,0,-999,0,0.00
2014-5-6,53,43,31,-100,-100,-100,0,0,100,0.00,40.00,0,-999,0,0.00
2014-5-13,35,27,21,-100,-100,-100,0,0,100,0.00,40.00,0,-999,0,0.00
2014-5-14,39,27,13,-100,-100,-100,0,0,100,0.00,40.00,0,-999,0,0.00
2014-5-15,44,36,30,-100,-100,-100,0,0,100,0.00,40.00,0,-999,0,0.00
2014-5-16,51,40,29,-100,-100,-100,0,0,100,0.00,40.00,0,-999,0,0.00
2014-5-17,58,44,31,-100,-100,-100,0,0,100,0.00,40.00,0,-999,0,0.00
2014-5-18,62,50,32,-100,-100,-100,0,0,100,0.00,40.00,0,-999,0,0.00
2014-5-19,61,52,37,-100,-100,-100,0,0,100,0.00,40.00,0,-999,0,0.00
2014-5-20,63,48,32,-100,-100,-100,0,0,100,0.00,40.00,0,-999,0,0.00
2014-5-21,60,55,44,-100,-100,-100,0,0,100,0.00,40.00,0,-999,0,0.00
2014-5-22,60,47,33,-100,-100,-100,0,0,100,0.00,40.00,0,-999,0,0.00
2014-5-23,62,47,38,-100,-100,-100,0,0,100,0.00,40.00,0,-999,0,0.00
2014-5-24,53,42,33,-100,-100,-100,0,0,100,0.00,40.00,0,-999,0,0.02
2014-5-25,50,40,36,-100,-100,-100,0,0,100,0.00,40.00,0,-999,0,0.01
2014-5-26,59,44,30,-100,-100,-100,0,0,100,0.00,40.00,0,-999,0,0.00
2014-5-27,62,48,35,-100,-100,-100,0,0,100,0.00,40.00,0,-999,0,0.00
2014-5-28,70,49,35,-100,-100,-100,0,0,100,0.00,40.00,0,-999,0,0.00
2014-5-29,64,53,42,-100,-100,-100,0,0,100,0.00,40.00,0,-999,0,0.00
2014-5-30,54,46,40,-100,-100,-100,0,0,100,0.00,40.00,0,-999,0,0.01
2014-5-31,62,49,35,-100,-100,-100,0,0,100,0.00,40.00,0,-999,0,0.01
2014-6-1,63,53,43,-100,-100,-100,0,0,100,0.00,40.00,0,-999,0,0.00
2014-6-2,66,49,32,-100,-100,-100,0,0,100,0.00,40.00,0,-999,0,0.00
2014-6-3,65,54,41,-100,-100,-100,0,0,100,0.00,40.00,0,-999,0,0.00
2014-6-4,68,52,33,-100,-100,-100,0,0,100,0.00,40.00,0,-999,0,0.00
2014-6-5,65,58,42,-100,-100,-100,0,0,100,0.00,40.00,0,-999,0,0.00
2014-6-6,64,51,37,-100,-100,-100,0,0,100,0.00,40.00,0,-999,0,0.01
2014-6-7,64,50,35,-100,-100,-100,0,0,100,0.00,40.00,0,-999,0,0.00
2014-6-8,57,43,34,-100,-100,-100,0,0,100,0.00,40.00,0,-999,0,0.01
2014-6-9,58,42,32,-100,-100,-100,0,0,100,0.00,40.00,0,-999,0,0.01
2014-6-10,62,49,33,-100,-100,-100,0,0,100,0.00,40.00,0,-999,0,0.00
2014-6-11,61,50,40,-100,-100,-100,0,0,100,0.00,40.00,0,-999,0,0.00
2014-6-12,64,49,34,-100,-100,-100,0,0,100,0.00,40.00,0,-999,0,0.00
2014-6-13,67,54,37,-100,-100,-100,0,0,100,0.00,40.00,0,-999,0,0.00
2014-6-14,59,47,36,-100,-100,-100,0,0,100,0.00,40.00,0,-999,0,0.01
2014-6-15,61,45,30,-100,-100,-100,0,0,100,0.00,40.00,0,-999,0,0.00
2014-6-16,62,49,36,-100,-100,-100,0,0,100,0.00,40.00,0,-999,0,0.00
2014-6-17,66,57,43,-100,-100,-100,0,0,100,0.00,40.00,0,-999,0,0.00
2014-6-18,59,48,35,-100,-100,-100,0,0,100,0.00,40.00,0,-999,0,0.01
2014-6-19,62,47,32,-100,-100,-100,0,0,100,0.00,40.00,0,-999,0,0.00
2014-6-20,67,51,31,-100,-100,-100,0,0,100,0.00,40.00,0,-999,0,0.00
2014-6-21,64,51,39,-100,-100,-100,0,0,100,0.00,40.00,0,-999,0,0.01
2014-6-22,62,51,38,-100,-100,-100,0,0,100,0.00,40.00,0,-999,0,0.00
2014-6-23,65,48,36,-100,-100,-100,0,0,100,0.00,40.00,0,-999,0,0.00
2014-6-24,68,52,39,-100,-100,-100,0,0,100,0.00,40.00,0,-999,0,0.00
2014-6-25,69,55,39,-100,-100,-100,0,0,100,0.00,40.00,0,-999,0,0.00
2014-6-26,68,52,38,-100,-100,-100,0,0,100,0.00,40.00,0,-999,0,0.00
2014-6-27,60,55,46,-100,-100,-100,0,0,100,0.00,40.00,0,-999,0,0.00
2014-6-28,63,52,43,-100,-100,-100,0,0,100,0.00,40.00,0,-999,0,0.00
2014-6-29,72,52,36,-100,-100,-100,0,0,100,0.00,40.00,0,-999,0,0.00
2014-6-30,71,56,43,-100,-100,-100,0,0,100,0.00,40.00,0,-999,0,0.00
2014-7-1,69,54,40,-100,-100,-100,0,0,100,0.00,40.00,0,-999,0,0.00
2014-7-2,71,60,40,-100,-100,-100,0,0,100,0.00,40.00,0,-999,0,0.00
2014-7-3,73,55,40,-100,-100,-100,0,0,100,0.00,40.00,0,-999,0,0.00
2014-7-4,67,54,44,-100,-100,-100,0,0,100,0.00,40.00,0,-999,0,0.01
2014-7-5,70,50,40,-100,-100,-100,0,0,100,0.00,40.00,0,-999,0,0.00
2014-7-6,73,60,41,-100,-100,-100,0,0,100,0.00,40.00,0,-999,0,0.00
2014-7-7,70,54,43,-100,-100,-100,0,0,100,0.00,40.00,0,-999,0,0.00
2014-7-8,74,59,41,-100,-100,-100,0,0,100,0.00,40.00,0,-999,0,0.00
2014-7-9,66,52,42,-100,-100,-100,0,0,100,0.00,40.00,0,-999,0,0.00
2014-7-10,68,55,45,-100,0,200,0,0,100,0.00,40.00,0,0,0,0.00
2014-7-11,60,51,44,-100,0,200,0,0,100,0.00,40.00,0,0,0,0.06
2014-7-12,68,56,44,-100,0,200,0,0,100,0.00,40.00,0,0,0,0.02
2014-7-13,70,56,45,-100,0,200,0,0,100,0.00,40.00,0,0,0,0.00
2014-7-14,71,56,45,-100,0,200,0,0,100,0.00,40.00,0,0,0,0.00
2014-7-15,66,51,45,-100,0,200,0,0,100,0.00,40.00,0,0,0,0.02